Location: Hurstbourne Priors
(51.2000°N, 1.3667°W)
Time: 22:37:27
(UTC+00:00)

Altair - Pass Details

Date: 14 April 2021
Orbit: 1501 x 1683 km, 47.2° (Epoch: 13 May)

Event Time Altitude Azimuth Distance (km) Brightness Sun altitude
Rises 07:27:26 0° 223° (SW) 4,839 9.8 20.2°
Reaches altitude 10° 07:30:46 10° 217° (SW) 3,830 9.4 20.7°
Maximum altitude 07:39:46 45° 149° (SSE) 2,038 9.0 22.1°
Drops below altitude 10° 07:48:28 10° 81° (E) 3,708 10.9 23.4°
Sets 07:51:37 0° 76° (ENE) 4,674 11.0 23.9°
